Weather History for Little Rock AFB, AR

Change the Weather History Date:

Friday, December 14, 2012

  Actual Average Record
Temperature  
Mean Temperature 42 °F -  
Max Temperature 58 °F 51 °F 71 °F (1984)
Min Temperature 25 °F 32 °F 11 °F (1985)
Degree Days  
Heating Degree Days 24    
Moisture  
Dew Point 36 °F    
Average Humidity 74    
Maximum Humidity 93    
Minimum Humidity 40    
Precipitation  
Precipitation 0.07 in - - ()
Sea Level Pressure  
Sea Level Pressure 30.14 in    
Wind  
Wind Speed 3 mph (ESE)    
Max Wind Speed 8 mph    
Max Gust Speed -    
Visibility 10 miles    
Events Rain    
Averages and records for this station are not official NWS values.
T = Trace of Precipitation, MM = Missing Value Source: NWS Daily Summary

Daily Weather History Graph

Daily Weather History Graph

Search for Another Location

Airport:

Trip Planner

Search our weather history database for the weather conditions in past years. The results will help you decide how hot, cold, wet, or windy it might be!

Date:

Astronomy

Dec. 14, 2012 Rise Set
Actual Time 7:08 AM CST 4:58 PM CST
Civil Twilight 6:40 AM CST 5:26 PM CST
Nautical Twilight 6:08 AM CST 5:58 PM CST
Astronomical Twilight 5:38 AM CST 6:28 PM CST
Moon 8:15 AM CST (12/14) 6:48 PM CST (12/14)
Length of Visible Light 10h 45m
Length of Day
9h 49m
Waxing Crescent, 3% of the Moon is Illuminated
Dec 14
Waxing Crescent
Dec 19
First Quarter
Dec 28
Full
Jan 4
Last Quarter
Jan 11
New

Hourly Weather History & Observations

Time (CST) Temp. Dew Point Humidity Pressure Visibility Wind Dir Wind Speed Gust Speed Precip Events Conditions
12:55 AM 28.8 °F 25.7 °F 88% 30.28 in 10.0 mi Calm Calm - N/A   Clear
1:55 AM 27.5 °F 25.0 °F 90% 30.26 in 10.0 mi Calm Calm - N/A   Clear
2:55 AM 27.5 °F 24.8 °F 90% 30.28 in 10.0 mi Calm Calm - N/A   Clear
3:55 AM 25.5 °F 23.4 °F 92% 30.26 in 10.0 mi Calm Calm - N/A   Clear
4:55 AM 25.2 °F 22.6 °F 90% 30.25 in 10.0 mi Calm Calm - N/A   Clear
5:55 AM 25.3 °F 22.8 °F 90% 30.25 in 10.0 mi Calm Calm - N/A   Clear
6:55 AM 26.4 °F 23.4 °F 88% 30.27 in 10.0 mi Calm Calm - N/A   Clear
7:55 AM 27.9 °F 25.2 °F 90% 30.28 in 10.0 mi Calm Calm - N/A   Clear
8:55 AM 33.8 °F 30.7 °F 89% 30.29 in 10.0 mi Calm Calm - N/A   Clear
9:55 AM 47.8 °F 31.1 °F 52% 30.27 in 10.0 mi SSE 8.1 mph - N/A   Clear
10:55 AM 50.5 °F 30.7 °F 47% 30.26 in 10.0 mi SSW 8.1 mph - N/A   Clear
11:55 AM 55.0 °F 31.6 °F 41% 30.24 in 10.0 mi SSW 5.8 mph - N/A   Partly Cloudy
12:55 PM 55.6 °F 31.3 °F 40% 30.20 in 10.0 mi Calm Calm - N/A   Mostly Cloudy
1:55 PM 58.1 °F 34.7 °F 41% 30.15 in 10.0 mi ESE 5.8 mph - N/A   Partly Cloudy
2:55 PM 57.0 °F 35.8 °F 45% 30.13 in 10.0 mi East 6.9 mph - N/A   Partly Cloudy
3:55 PM 56.5 °F 35.8 °F 46% 30.10 in 10.0 mi East 5.8 mph - N/A   Mostly Cloudy
4:55 PM 55.0 °F 36.3 °F 49% 30.08 in 10.0 mi East 4.6 mph - N/A   Mostly Cloudy
5:55 PM 54.1 °F 37.6 °F 54% 30.07 in 10.0 mi ESE 4.6 mph - N/A   Overcast
6:49 PM 55.4 °F 37.4 °F 51% 30.09 in 10.0 mi South 5.8 mph - N/A   Light Drizzle
6:55 PM 54.3 °F 38.7 °F 55% 30.09 in 10.0 mi SSE 5.8 mph - 0.00 in Rain Light Rain
7:55 PM 49.6 °F 45.0 °F 84% 30.12 in 9.0 mi ESE 4.6 mph - 0.03 in Rain Light Rain
8:21 PM 50.0 °F 44.6 °F 82% 30.11 in 10.0 mi SSE 5.8 mph - N/A   Overcast
8:55 PM 49.1 °F 44.6 °F 84% 30.06 in 10.0 mi East 3.5 mph - 0.04 in   Mostly Cloudy
9:50 PM 48.2 °F 44.6 °F 87% 30.04 in 10.0 mi East 5.8 mph - N/A Rain Light Rain
9:55 PM 48.7 °F 45.1 °F 87% 30.04 in 10.0 mi East 6.9 mph - 0.00 in Rain Light Rain
10:06 PM 48.2 °F 44.6 °F 87% 30.04 in 10.0 mi ESE 4.6 mph - N/A   Overcast
10:09 PM 48.2 °F 44.6 °F 87% 30.04 in 10.0 mi Variable 3.5 mph - N/A Rain Light Rain
10:19 PM 48.2 °F 44.6 °F 87% 30.04 in 10.0 mi East 4.6 mph - N/A   Overcast
10:23 PM 48.2 °F 44.6 °F 87% 30.04 in 10.0 mi East 5.8 mph - N/A Rain Light Rain
10:34 PM 48.2 °F 44.6 °F 87% 30.04 in 10.0 mi Variable 3.5 mph - N/A   Overcast
10:55 PM 48.4 °F 45.3 °F 89% 30.03 in 10.0 mi East 3.5 mph - 0.00 in   Overcast
11:11 PM 48.2 °F 46.4 °F 93% 30.02 in 10.0 mi ESE 4.6 mph - N/A   Overcast
11:55 PM 49.1 °F 45.1 °F 86% 30.00 in 10.0 mi ESE 4.6 mph - N/A   Overcast